Time,TemperatureF,DewpointF,PressureIn,WindDirection,WindDirectionDegrees,WindSpeedMPH,WindSpeedGustMPH,Humidity,HourlyPrecipIn,Conditions,Clouds,dailyrainin,SolarRadiationWatts/m^2,SoftwareType,DateUTC
2013-05-11 00:06:00,58.1,55.0,30.10,ESE,109,0.0,-999.0,88,-99.99,,,0.00,0,weatherlink.com 1.10,2013-05-11 07:06:00,
2013-05-11 00:21:00,57.8,54.0,30.10,ESE,109,0.0,-999.0,88,-99.99,,,0.00,0,weatherlink.com 1.10,2013-05-11 07:21:00,
2013-05-11 00:36:00,57.2,54.0,30.10,ESE,109,0.0,-999.0,89,-99.99,,,0.00,0,weatherlink.com 1.10,2013-05-11 07:36:00,
2013-05-11 00:51:00,57.1,54.0,30.09,ESE,109,0.0,-999.0,89,-99.99,,,0.00,0,weatherlink.com 1.10,2013-05-11 07:51:00,
2013-05-11 01:06:00,56.7,54.0,30.09,ESE,109,0.0,-999.0,89,-99.99,,,0.00,0,weatherlink.com 1.10,2013-05-11 08:06:00,
2013-05-11 01:21:00,56.6,54.0,30.09,ESE,109,0.0,-999.0,89,-99.99,,,0.00,0,weatherlink.com 1.10,2013-05-11 08:21:00,
2013-05-11 01:36:00,56.4,53.0,30.09,ESE,109,0.0,-999.0,89,-99.99,,,0.00,0,weatherlink.com 1.10,2013-05-11 08:36:00,
2013-05-11 01:51:00,56.1,53.0,30.08,ESE,109,0.0,-999.0,89,-99.99,,,0.00,0,weatherlink.com 1.10,2013-05-11 08:51:00,
2013-05-11 02:06:00,55.7,53.0,30.08,ESE,109,0.0,-999.0,89,-99.99,,,0.00,0,weatherlink.com 1.10,2013-05-11 09:06:00,
2013-05-11 02:21:00,55.3,52.0,30.07,ESE,109,0.0,-999.0,89,-99.99,,,0.00,0,weatherlink.com 1.10,2013-05-11 09:21:00,
2013-05-11 02:36:00,55.0,52.0,30.08,ESE,109,0.0,-999.0,89,-99.99,,,0.00,0,weatherlink.com 1.10,2013-05-11 09:36:00,
2013-05-11 02:51:00,54.8,52.0,30.08,ESE,109,0.0,-999.0,89,-99.99,,,0.00,0,weatherlink.com 1.10,2013-05-11 09:51:00,
2013-05-11 03:06:00,54.5,51.0,30.08,ESE,109,0.0,-999.0,89,-99.99,,,0.00,0,weatherlink.com 1.10,2013-05-11 10:06:00,
2013-05-11 03:21:00,54.1,51.0,30.07,ESE,109,0.0,-999.0,90,-99.99,,,0.00,0,weatherlink.com 1.10,2013-05-11 10:21:00,
2013-05-11 03:36:00,53.9,51.0,30.07,ESE,109,0.0,-999.0,90,-99.99,,,0.00,0,weatherlink.com 1.10,2013-05-11 10:36:00,
2013-05-11 03:51:00,53.7,51.0,30.07,ESE,109,0.0,-999.0,90,-99.99,,,0.00,0,weatherlink.com 1.10,2013-05-11 10:51:00,
2013-05-11 04:06:00,53.5,51.0,30.07,ESE,109,0.0,-999.0,90,-99.99,,,0.00,0,weatherlink.com 1.10,2013-05-11 11:06:00,
2013-05-11 04:21:00,53.5,51.0,30.07,ESE,109,0.0,-999.0,91,-99.99,,,0.00,0,weatherlink.com 1.10,2013-05-11 11:21:00,
2013-05-11 04:36:00,53.8,51.0,30.07,ESE,109,0.0,-999.0,91,-99.99,,,0.00,0,weatherlink.com 1.10,2013-05-11 11:36:00,
2013-05-11 04:51:00,53.9,51.0,30.06,ESE,109,0.0,-999.0,91,-99.99,,,0.00,0,weatherlink.com 1.10,2013-05-11 11:51:00,
2013-05-11 05:06:00,54.2,52.0,30.06,ESE,109,0.0,-999.0,92,-99.99,,,0.00,0,weatherlink.com 1.10,2013-05-11 12:06:00,
2013-05-11 05:21:00,54.7,53.0,30.06,ESE,109,0.0,-999.0,92,-99.99,,,0.00,0,weatherlink.com 1.10,2013-05-11 12:21:00,
2013-05-11 05:36:00,54.9,53.0,30.05,ESE,109,0.0,-999.0,92,-99.99,,,0.00,0,weatherlink.com 1.10,2013-05-11 12:36:00,
2013-05-11 05:51:00,55.2,53.0,30.06,ESE,109,0.0,-999.0,92,-99.99,,,0.00,0,weatherlink.com 1.10,2013-05-11 12:51:00,
2013-05-11 06:06:00,55.6,53.0,30.07,ESE,109,0.0,-999.0,92,-99.99,,,0.00,5,weatherlink.com 1.10,2013-05-11 13:06:00,
2013-05-11 06:21:00,55.8,54.0,30.07,ESE,103,0.0,-999.0,93,-99.99,,,0.00,16,weatherlink.com 1.10,2013-05-11 13:21:00,
2013-05-11 06:36:00,56.2,54.0,30.08,ESE,103,0.0,-999.0,93,-99.99,,,0.00,23,weatherlink.com 1.10,2013-05-11 13:36:00,
2013-05-11 06:52:00,56.5,55.0,30.08,ESE,103,0.0,-999.0,93,-99.99,,,0.00,42,weatherlink.com 1.10,2013-05-11 13:52:00,
2013-05-11 07:07:00,57.3,56.0,30.08,SE,141,0.0,-999.0,94,-99.99,,,0.00,53,weatherlink.com 1.10,2013-05-11 14:07:00,
2013-05-11 07:22:00,57.9,56.0,30.08,East,86,0.0,-999.0,94,-99.99,,,0.00,72,weatherlink.com 1.10,2013-05-11 14:22:00,
2013-05-11 07:37:00,58.1,56.0,30.08,East,82,0.0,-999.0,94,-99.99,,,0.00,97,weatherlink.com 1.10,2013-05-11 14:37:00,
2013-05-11 07:52:00,58.6,57.0,30.08,East,81,0.0,-999.0,94,-99.99,,,0.00,125,weatherlink.com 1.10,2013-05-11 14:52:00,
2013-05-11 08:07:00,59.0,57.0,30.07,East,100,0.0,-999.0,94,-99.99,,,0.00,148,weatherlink.com 1.10,2013-05-11 15:07:00,
2013-05-11 08:22:00,59.6,58.0,30.08,East,100,0.0,-999.0,94,-99.99,,,0.00,139,weatherlink.com 1.10,2013-05-11 15:22:00,
2013-05-11 08:37:00,60.1,58.0,30.09,East,98,0.0,-999.0,94,-99.99,,,0.00,163,weatherlink.com 1.10,2013-05-11 15:37:00,
2013-05-11 08:52:00,60.6,59.0,30.09,East,98,0.0,-999.0,94,-99.99,,,0.00,172,weatherlink.com 1.10,2013-05-11 15:52:00,
2013-05-11 09:07:00,61.3,60.0,30.09,East,98,0.0,-999.0,94,-99.99,,,0.00,216,weatherlink.com 1.10,2013-05-11 16:07:00,
2013-05-11 09:22:00,61.7,60.0,30.09,WNW,285,0.0,-999.0,93,-99.99,,,0.00,253,weatherlink.com 1.10,2013-05-11 16:22:00,
2013-05-11 09:37:00,62.6,61.0,30.08,SE,136,0.0,-999.0,93,-99.99,,,0.00,615,weatherlink.com 1.10,2013-05-11 16:37:00,
2013-05-11 09:52:00,63.9,61.0,30.08,West,279,0.0,-999.0,90,-99.99,,,0.00,740,weatherlink.com 1.10,2013-05-11 16:52:00,
2013-05-11 10:07:00,66.3,62.0,30.07,WSW,248,0.0,-999.0,86,-99.99,,,0.00,773,weatherlink.com 1.10,2013-05-11 17:07:00,
2013-05-11 10:22:00,68.3,62.0,30.07,South,176,1.0,-999.0,80,-99.99,,,0.00,812,weatherlink.com 1.10,2013-05-11 17:22:00,
2013-05-11 10:37:00,70.7,62.0,30.07,ESE,120,0.0,-999.0,75,-99.99,,,0.00,840,weatherlink.com 1.10,2013-05-11 17:37:00,
2013-05-11 10:52:00,73.4,62.0,30.07,SW,216,0.0,-999.0,68,-99.99,,,0.00,875,weatherlink.com 1.10,2013-05-11 17:52:00,
2013-05-11 11:07:00,75.5,62.0,30.06,WSW,243,1.0,-999.0,63,-99.99,,,0.00,896,weatherlink.com 1.10,2013-05-11 18:07:00,
2013-05-11 11:23:00,77.7,62.0,30.05,South,176,1.0,-999.0,59,-99.99,,,0.00,918,weatherlink.com 1.10,2013-05-11 18:23:00,
2013-05-11 11:38:00,78.2,62.0,30.05,WNW,295,2.0,-999.0,58,-99.99,,,0.00,935,weatherlink.com 1.10,2013-05-11 18:38:00,
2013-05-11 11:53:00,79.8,62.0,30.04,West,266,2.0,-999.0,55,-99.99,,,0.00,949,weatherlink.com 1.10,2013-05-11 18:53:00,
2013-05-11 12:08:00,81.1,63.0,30.04,West,265,0.0,-999.0,54,-99.99,,,0.00,956,weatherlink.com 1.10,2013-05-11 19:08:00,
2013-05-11 12:23:00,82.0,63.0,30.03,WSW,242,3.0,-999.0,52,-99.99,,,0.00,962,weatherlink.com 1.10,2013-05-11 19:23:00,
2013-05-11 12:38:00,83.1,63.0,30.03,West,274,3.0,-999.0,51,-99.99,,,0.00,962,weatherlink.com 1.10,2013-05-11 19:38:00,
2013-05-11 12:53:00,84.7,63.0,30.03,NW,304,0.0,-999.0,49,-99.99,,,0.00,965,weatherlink.com 1.10,2013-05-11 19:53:00,
2013-05-11 13:08:00,85.7,63.0,30.02,WSW,256,0.0,-999.0,47,-99.99,,,0.00,962,weatherlink.com 1.10,2013-05-11 20:08:00,
2013-05-11 13:23:00,87.0,64.0,30.02,West,278,1.0,-999.0,47,-99.99,,,0.00,954,weatherlink.com 1.10,2013-05-11 20:23:00,
2013-05-11 13:38:00,87.3,65.0,30.02,NNW,335,2.0,-999.0,47,-99.99,,,0.00,942,weatherlink.com 1.10,2013-05-11 20:38:00,
2013-05-11 13:53:00,88.2,65.0,30.01,NW,317,3.0,-999.0,46,-99.99,,,0.00,926,weatherlink.com 1.10,2013-05-11 20:53:00,
2013-05-11 14:08:00,88.4,64.0,30.01,WNW,296,5.0,-999.0,44,-99.99,,,0.00,904,weatherlink.com 1.10,2013-05-11 21:08:00,
2013-05-11 14:23:00,87.8,64.0,30.01,West,269,2.0,-999.0,45,-99.99,,,0.00,881,weatherlink.com 1.10,2013-05-11 21:23:00,
2013-05-11 14:38:00,88.0,63.0,30.00,NW,321,0.0,-999.0,44,-99.99,,,0.00,853,weatherlink.com 1.10,2013-05-11 21:38:00,
2013-05-11 14:53:00,88.4,62.0,30.00,WNW,300,4.0,-999.0,42,-99.99,,,0.00,819,weatherlink.com 1.10,2013-05-11 21:53:00,
2013-05-11 15:08:00,87.1,63.0,30.00,North,359,0.0,-999.0,45,-99.99,,,0.00,775,weatherlink.com 1.10,2013-05-11 22:08:00,
2013-05-11 15:23:00,87.5,61.0,29.99,NW,322,0.0,-999.0,41,-99.99,,,0.00,742,weatherlink.com 1.10,2013-05-11 22:23:00,
2013-05-11 15:38:00,87.8,61.0,29.99,NW,309,7.0,-999.0,41,-99.99,,,0.00,700,weatherlink.com 1.10,2013-05-11 22:38:00,
2013-05-11 15:53:00,88.4,62.0,29.98,WNW,300,1.0,-999.0,41,-99.99,,,0.00,664,weatherlink.com 1.10,2013-05-11 22:53:00,
2013-05-11 16:08:00,88.4,62.0,29.98,NW,325,0.0,-999.0,42,-99.99,,,0.00,621,weatherlink.com 1.10,2013-05-11 23:08:00,
2013-05-11 16:23:00,88.7,63.0,29.98,NNW,328,1.0,-999.0,42,-99.99,,,0.00,573,weatherlink.com 1.10,2013-05-11 23:23:00,
2013-05-11 16:38:00,87.6,64.0,29.98,NW,321,3.0,-999.0,45,-99.99,,,0.00,526,weatherlink.com 1.10,2013-05-11 23:38:00,
2013-05-11 16:53:00,87.0,64.0,29.98,North,1,4.0,-999.0,47,-99.99,,,0.00,471,weatherlink.com 1.10,2013-05-11 23:53:00,
2013-05-11 17:08:00,85.3,63.0,29.98,NNW,331,4.0,-999.0,48,-99.99,,,0.00,424,weatherlink.com 1.10,2013-05-12 00:08:00,
2013-05-11 17:23:00,84.9,64.0,29.98,NW,315,1.0,-999.0,49,-99.99,,,0.00,373,weatherlink.com 1.10,2013-05-12 00:23:00,
2013-05-11 17:38:00,85.0,63.0,29.98,WSW,252,3.0,-999.0,48,-99.99,,,0.00,323,weatherlink.com 1.10,2013-05-12 00:38:00,
2013-05-11 17:54:00,84.0,63.0,29.98,NNW,330,4.0,-999.0,49,-99.99,,,0.00,274,weatherlink.com 1.10,2013-05-12 00:54:00,
2013-05-11 18:09:00,83.1,63.0,29.98,WSW,254,2.0,-999.0,51,-99.99,,,0.00,186,weatherlink.com 1.10,2013-05-12 01:09:00,
2013-05-11 18:24:00,82.2,63.0,29.98,WSW,244,0.0,-999.0,53,-99.99,,,0.00,63,weatherlink.com 1.10,2013-05-12 01:24:00,
2013-05-11 18:39:00,81.6,64.0,29.98,North,352,0.0,-999.0,55,-99.99,,,0.00,53,weatherlink.com 1.10,2013-05-12 01:39:00,
2013-05-11 18:54:00,80.4,63.0,29.99,NW,305,0.0,-999.0,56,-99.99,,,0.00,62,weatherlink.com 1.10,2013-05-12 01:54:00,
2013-05-11 19:09:00,78.7,62.0,29.99,SE,127,0.0,-999.0,57,-99.99,,,0.00,21,weatherlink.com 1.10,2013-05-12 02:09:00,
2013-05-11 19:24:00,76.1,62.0,30.01,South,172,3.0,-999.0,61,-99.99,,,0.00,12,weatherlink.com 1.10,2013-05-12 02:24:00,
2013-05-11 19:39:00,73.2,61.0,30.01,South,174,3.0,-999.0,66,-99.99,,,0.00,5,weatherlink.com 1.10,2013-05-12 02:39:00,
2013-05-11 19:54:00,71.3,61.0,30.02,South,178,4.0,-999.0,69,-99.99,,,0.00,0,weatherlink.com 1.10,2013-05-12 02:54:00,
2013-05-11 20:09:00,69.5,60.0,30.02,South,169,1.0,-999.0,72,-99.99,,,0.00,0,weatherlink.com 1.10,2013-05-12 03:09:00,
2013-05-11 20:24:00,67.7,60.0,30.03,South,178,2.0,-999.0,75,-99.99,,,0.00,0,weatherlink.com 1.10,2013-05-12 03:24:00,
2013-05-11 20:39:00,66.4,60.0,30.03,SE,134,0.0,-999.0,79,-99.99,,,0.00,0,weatherlink.com 1.10,2013-05-12 03:39:00,
2013-05-11 20:54:00,65.4,59.0,30.04,SSE,166,0.0,-999.0,81,-99.99,,,0.00,0,weatherlink.com 1.10,2013-05-12 03:54:00,
2013-05-11 21:09:00,64.6,59.0,30.05,South,178,0.0,-999.0,83,-99.99,,,0.00,0,weatherlink.com 1.10,2013-05-12 04:09:00,
2013-05-11 21:24:00,64.0,59.0,30.05,South,179,0.0,-999.0,84,-99.99,,,0.00,0,weatherlink.com 1.10,2013-05-12 04:24:00,
2013-05-11 21:39:00,63.5,59.0,30.05,ESE,116,3.0,-999.0,86,-99.99,,,0.00,0,weatherlink.com 1.10,2013-05-12 04:39:00,
2013-05-11 21:54:00,63.2,59.0,30.06,East,94,2.0,-999.0,87,-99.99,,,0.00,0,weatherlink.com 1.10,2013-05-12 04:54:00,
2013-05-11 22:09:00,62.9,59.0,30.07,South,172,3.0,-999.0,88,-99.99,,,0.00,0,weatherlink.com 1.10,2013-05-12 05:09:00,
2013-05-11 22:24:00,62.5,59.0,30.07,East,85,0.0,-999.0,89,-99.99,,,0.00,0,weatherlink.com 1.10,2013-05-12 05:24:00,
2013-05-11 22:39:00,62.4,59.0,30.07,East,98,3.0,-999.0,89,-99.99,,,0.00,0,weatherlink.com 1.10,2013-05-12 05:39:00,
2013-05-11 22:54:00,62.2,59.0,30.07,East,97,0.0,-999.0,90,-99.99,,,0.00,0,weatherlink.com 1.10,2013-05-12 05:54:00,
2013-05-11 23:09:00,62.0,59.0,30.07,East,97,0.0,-999.0,91,-99.99,,,0.00,0,weatherlink.com 1.10,2013-05-12 06:09:00,
2013-05-11 23:24:00,61.9,59.0,30.07,East,97,0.0,-999.0,91,-99.99,,,0.00,0,weatherlink.com 1.10,2013-05-12 06:24:00,
2013-05-11 23:39:00,61.9,59.0,30.07,East,97,0.0,-999.0,91,-99.99,,,0.00,0,weatherlink.com 1.10,2013-05-12 06:39:00,
2013-05-11 23:54:00,61.8,59.0,30.07,East,97,0.0,-999.0,91,-99.99,,,0.00,0,weatherlink.com 1.10,2013-05-12 06:54:00,